Time,TemperatureF,DewpointF,PressureIn,WindDirection,WindDirectionDegrees,WindSpeedMPH,WindSpeedGustMPH,Humidity,HourlyPrecipIn,Conditions,Clouds,dailyrainin,SoftwareType,DateUTC
2016-08-27 00:03:00,77.2,47.0,29.71,WNW,292,2.0,5.0,34,0.00,,,0.00,weatherlink.com 1.10,2016-08-27 07:03:00,
2016-08-27 00:18:00,76.7,47.0,29.70,WNW,283,0.0,3.0,35,0.00,,,0.00,weatherlink.com 1.10,2016-08-27 07:18:00,
2016-08-27 00:33:00,76.3,47.0,29.70,WSW,247,1.0,3.0,35,0.00,,,0.00,weatherlink.com 1.10,2016-08-27 07:33:00,
2016-08-27 00:48:00,76.2,45.0,29.70,WNW,285,0.0,3.0,33,0.00,,,0.00,weatherlink.com 1.10,2016-08-27 07:48:00,
2016-08-27 01:03:00,76.6,46.0,29.70,West,270,2.0,6.0,34,0.00,,,0.00,weatherlink.com 1.10,2016-08-27 08:03:00,
2016-08-27 01:18:00,76.3,48.0,29.69,WNW,287,2.0,6.0,37,0.00,,,0.00,weatherlink.com 1.10,2016-08-27 08:18:00,
2016-08-27 01:48:00,75.0,48.0,29.69,West,281,2.0,3.0,39,0.00,,,0.00,weatherlink.com 1.10,2016-08-27 08:48:00,
2016-08-27 02:03:00,74.9,47.0,29.69,West,278,1.0,5.0,37,0.00,,,0.00,weatherlink.com 1.10,2016-08-27 09:03:00,
2016-08-27 02:18:00,74.3,46.0,29.69,West,260,0.0,2.0,37,0.00,,,0.00,weatherlink.com 1.10,2016-08-27 09:18:00,
2016-08-27 02:33:00,74.3,46.0,29.69,West,269,1.0,2.0,36,0.00,,,0.00,weatherlink.com 1.10,2016-08-27 09:33:00,
2016-08-27 02:48:00,74.9,46.0,29.68,West,264,1.0,4.0,36,0.00,,,0.00,weatherlink.com 1.10,2016-08-27 09:48:00,
2016-08-27 03:03:00,74.8,46.0,29.68,South,184,1.0,2.0,36,0.00,,,0.00,weatherlink.com 1.10,2016-08-27 10:03:00,
2016-08-27 03:18:00,74.6,47.0,29.68,NW,307,0.0,3.0,37,0.00,,,0.00,weatherlink.com 1.10,2016-08-27 10:18:00,
2016-08-27 03:33:00,73.6,46.0,29.68,North,357,1.0,2.0,38,0.00,,,0.00,weatherlink.com 1.10,2016-08-27 10:33:00,
2016-08-27 03:48:00,73.5,46.0,29.67,West,261,1.0,4.0,38,0.00,,,0.00,weatherlink.com 1.10,2016-08-27 10:48:00,
2016-08-27 04:03:00,73.8,46.0,29.67,NNW,342,1.0,2.0,37,0.00,,,0.00,weatherlink.com 1.10,2016-08-27 11:03:00,
2016-08-27 04:18:00,73.4,46.0,29.67,North,359,1.0,1.0,38,0.00,,,0.00,weatherlink.com 1.10,2016-08-27 11:18:00,
2016-08-27 04:33:00,74.0,47.0,29.67,NE,43,1.0,1.0,38,0.00,,,0.00,weatherlink.com 1.10,2016-08-27 11:33:00,
2016-08-27 04:48:00,73.2,47.0,29.66,North,352,1.0,3.0,39,0.00,,,0.00,weatherlink.com 1.10,2016-08-27 11:48:00,
2016-08-27 05:03:00,73.1,47.0,29.66,North,4,1.0,2.0,39,0.00,,,0.00,weatherlink.com 1.10,2016-08-27 12:03:00,
2016-08-27 05:18:00,73.8,46.0,29.66,West,280,1.0,3.0,37,0.00,,,0.00,weatherlink.com 1.10,2016-08-27 12:18:00,
2016-08-27 05:33:00,75.3,46.0,29.66,WNW,287,3.0,5.0,36,0.00,,,0.00,weatherlink.com 1.10,2016-08-27 12:33:00,
2016-08-27 05:49:00,75.5,46.0,29.66,West,273,1.0,2.0,35,0.00,,,0.00,weatherlink.com 1.10,2016-08-27 12:49:00,
2016-08-27 06:03:00,75.4,46.0,29.65,NW,316,0.0,1.0,35,0.00,,,0.00,weatherlink.com 1.10,2016-08-27 13:03:00,
2016-08-27 06:19:00,75.3,46.0,29.65,WNW,300,1.0,2.0,35,0.00,,,0.00,weatherlink.com 1.10,2016-08-27 13:19:00,
2016-08-27 06:34:00,75.2,46.0,29.65,NNE,32,1.0,3.0,36,0.00,,,0.00,weatherlink.com 1.10,2016-08-27 13:34:00,
2016-08-27 06:49:00,75.3,46.0,29.66,West,274,1.0,2.0,36,0.00,,,0.00,weatherlink.com 1.10,2016-08-27 13:49:00,
2016-08-27 07:04:00,75.2,46.0,29.65,West,271,1.0,2.0,36,0.00,,,0.00,weatherlink.com 1.10,2016-08-27 14:04:00,
2016-08-27 07:19:00,74.3,50.0,29.65,North,6,1.0,1.0,43,0.00,,,0.00,weatherlink.com 1.10,2016-08-27 14:19:00,
2016-08-27 07:34:00,74.2,48.0,29.66,NW,307,0.0,3.0,40,0.00,,,0.00,weatherlink.com 1.10,2016-08-27 14:34:00,
2016-08-27 07:49:00,74.8,48.0,29.66,ESE,122,0.0,2.0,39,0.00,,,0.00,weatherlink.com 1.10,2016-08-27 14:49:00,
2016-08-27 08:04:00,74.8,47.0,29.66,NNE,22,0.0,2.0,38,0.00,,,0.00,weatherlink.com 1.10,2016-08-27 15:04:00,
2016-08-27 08:19:00,73.3,49.0,29.66,NNW,340,0.0,1.0,43,0.00,,,0.00,weatherlink.com 1.10,2016-08-27 15:19:00,
2016-08-27 08:34:00,71.3,50.0,29.66,North,8,0.0,3.0,47,0.00,,,0.00,weatherlink.com 1.10,2016-08-27 15:34:00,
2016-08-27 08:49:00,73.8,48.0,29.66,West,280,0.0,1.0,40,0.00,,,0.00,weatherlink.com 1.10,2016-08-27 15:49:00,
2016-08-27 09:04:00,73.3,49.0,29.66,NNW,333,0.0,1.0,42,0.00,,,0.00,weatherlink.com 1.10,2016-08-27 16:04:00,
2016-08-27 09:19:00,74.4,48.0,29.66,WNW,285,0.0,1.0,39,0.00,,,0.00,weatherlink.com 1.10,2016-08-27 16:19:00,
2016-08-27 09:34:00,74.9,48.0,29.66,ESE,121,0.0,2.0,39,0.00,,,0.00,weatherlink.com 1.10,2016-08-27 16:34:00,
2016-08-27 09:49:00,75.4,47.0,29.66,West,265,0.0,2.0,37,0.00,,,0.00,weatherlink.com 1.10,2016-08-27 16:49:00,